Location: Il Ritiro
(43.4167°N, 13.1333°E)
Time: 07:57:08
(UTC+00:00)

Resurs 1-3 - Pass Details

Date: 05 July 2020
Orbit: 630 x 632 km, 97.9° (Epoch: 06 August)

Event Time Altitude Azimuth Distance (km) Brightness Sun altitude
Exits shadow 19:43:06 - 179° (S) 2,880 6.6 -8.3°
Reaches altitude 10° 19:45:15 10° 184° (S) 2,007 5.8 -8.6°
Maximum altitude 19:49:31 50° 260° (W) 804 4.4 -9.2°
Drops below altitude 10° 19:53:48 10° 337° (NNW) 2,022 7.4 -9.7°
Sets 19:56:04 0° 342° (NNW) 2,934 8.3 -10.0°
